Location: Hanover
(52.3667°N, 9.7167°E)
Time: 06:25:16
(UTC+02:00)

Envisat - Pass Details

Date: 27 September 2024
Orbit: 762 x 764 km, 98.3° (Epoch: 04 October)

Event Time Altitude Azimuth Distance (km) Brightness Sun altitude
Rises 05:10:33 0° 12° (NNE) 3,240 6.8 -19.5°
Reaches altitude 10° 05:12:54 10° 9° (N) 2,309 5.9 -19.2°
Maximum altitude 05:17:53 60° 291° (WNW) 876 3.0 -18.5°
Enters shadow 05:20:17 30° 223° (SW) 1,349 3.8 -18.1°
